When you browse on this site, cookies collect data to enhance your experience and personalize the content and advertising you see.
Visit our Privacy Policy to learn more. By continuing to use the site, you agree to this use of cookies and data.
EN

Hourly Weather Jambol

Today, 16 July, Thursday

Time Temperature Precipitation Wind Pressure Humidity
00:00 +18°C° 0 mm 1 mps 749 mmHg 67%
01:00 +18°C° 0 mm 1 mps 749 mmHg 68%
02:00 +18°C° 0 mm 1 mps 749 mmHg 68%
03:00 +16°C° 0 mm 0 mps 749 mmHg 68%
04:00 +16°C° 0 mm 0 mps 749 mmHg 67%
05:00 +16°C° 0 mm 0 mps 748 mmHg 67%
06:00 +18°C° 0 mm 0 mps 748 mmHg 62%
07:00 +19°C° 0 mm 0 mps 749 mmHg 57%
08:00 +21°C° 0 mm 0 mps 749 mmHg 51%
09:00 +25°C° 0 mm 1 mps 749 mmHg 46%
10:00 +26°C° 0 mm 1 mps 748 mmHg 41%
11:00 +28°C° 0 mm 1 mps 748 mmHg 36%
12:00 +29°C° 0 mm 1 mps 748 mmHg 35%
13:00 +29°C° 0 mm 2 mps 748 mmHg 34%
14:00 +30°C° 0 mm 2 mps 747 mmHg 33%
15:00 +30°C° 0 mm 2 mps 747 mmHg 35%
16:00 +29°C° 0 mm 3 mps 747 mmHg 38%
17:00 +29°C° 0 mm 3 mps 747 mmHg 40%
18:00 +27°C° 0 mm 3 mps 747 mmHg 45%
19:00 +24°C° 0 mm 3 mps 747 mmHg 51%
20:00 +21°C° 0 mm 3 mps 747 mmHg 56%
21:00 +20°C° 0 mm 2 mps 747 mmHg 59%
22:00 +20°C° 0 mm 1 mps 747 mmHg 62%
23:00 +19°C° 0 mm 1 mps 747 mmHg 66%

Tomorrow, 17 July, Friday

Time Temperature Precipitation Wind Pressure Humidity
00:00 +19°C° 0 mm 1 mps 747 mmHg 66%
01:00 +19°C° 0 mm 1 mps 747 mmHg 67%
02:00 +16°C° 0 mm 0 mps 747 mmHg 67%
03:00 +16°C° 0 mm 0 mps 747 mmHg 68%
04:00 +16°C° 0 mm 0 mps 747 mmHg 68%
05:00 +16°C° 0 mm 0 mps 747 mmHg 69%
06:00 +18°C° 0 mm 0 mps 747 mmHg 62%
07:00 +20°C° 0 mm 0 mps 747 mmHg 56%
08:00 +23°C° 0 mm 0 mps 748 mmHg 50%
09:00 +26°C° 0 mm 1 mps 747 mmHg 46%
10:00 +28°C° 0 mm 1 mps 747 mmHg 42%
11:00 +30°C° 0 mm 1 mps 747 mmHg 39%
12:00 +30°C° 0.1 mm 2 mps 747 mmHg 37%
13:00 +31°C° 0.1 mm 2 mps 747 mmHg 36%
14:00 +31°C° 0.1 mm 3 mps 747 mmHg 34%
15:00 +31°C° 0 mm 3 mps 746 mmHg 36%
16:00 +30°C° 0 mm 4 mps 746 mmHg 38%
17:00 +30°C° 0 mm 5 mps 746 mmHg 40%
18:00 +27°C° 0 mm 4 mps 746 mmHg 47%
19:00 +25°C° 0 mm 3 mps 746 mmHg 53%
20:00 +22°C° 0 mm 3 mps 746 mmHg 59%
21:00 +21°C° 0 mm 2 mps 746 mmHg 64%
22:00 +20°C° 0 mm 2 mps 747 mmHg 68%
23:00 +19°C° 0 mm 2 mps 747 mmHg 73%

Day after tomorrow, 18 July, Saturday

Time Temperature Precipitation Wind Pressure Humidity
00:00 +19°C° 0 mm 1 mps 747 mmHg 75%
01:00 +19°C° 0 mm 1 mps 747 mmHg 76%
02:00 +17°C° 0 mm 0 mps 747 mmHg 77%
03:00 +16°C° 0 mm 0 mps 747 mmHg 77%
04:00 +16°C° 0 mm 0 mps 747 mmHg 77%
05:00 +16°C° 0 mm 0 mps 747 mmHg 76%
06:00 +20°C° 0 mm 1 mps 747 mmHg 68%
07:00 +22°C° 0 mm 1 mps 747 mmHg 59%
08:00 +25°C° 0 mm 1 mps 747 mmHg 51%
09:00 +26°C° 0 mm 2 mps 747 mmHg 46%
10:00 +28°C° 0 mm 3 mps 747 mmHg 41%
11:00 +30°C° 0 mm 4 mps 746 mmHg 37%
12:00 +32°C° 0 mm 4 mps 746 mmHg 36%
13:00 +32°C° 0 mm 5 mps 746 mmHg 36%
14:00 +33°C° 0 mm 5 mps 745 mmHg 35%
15:00 +32°C° 0 mm 5 mps 745 mmHg 37%
16:00 +32°C° 0 mm 5 mps 745 mmHg 39%
17:00 +30°C° 0 mm 5 mps 745 mmHg 42%
18:00 +28°C° 0 mm 5 mps 745 mmHg 53%
19:00 +26°C° 0 mm 4 mps 745 mmHg 64%
20:00 +23°C° 0 mm 4 mps 745 mmHg 76%
21:00 +22°C° 0 mm 3 mps 746 mmHg 81%
22:00 +21°C° 0 mm 2 mps 746 mmHg 87%
23:00 +20°C° 0 mm 2 mps 746 mmHg 93%

19 July, Sunday

Time Temperature Precipitation Wind Pressure Humidity
00:00 +20°C° 0 mm 2 mps 746 mmHg 91%
01:00 +19°C° 0 mm 2 mps 746 mmHg 90%
02:00 +19°C° 0 mm 2 mps 746 mmHg 89%
03:00 +19°C° 0 mm 2 mps 746 mmHg 89%
04:00 +19°C° 0 mm 2 mps 747 mmHg 89%
05:00 +18°C° 0 mm 2 mps 747 mmHg 89%
06:00 +20°C° 0 mm 2 mps 747 mmHg 81%
07:00 +21°C° 0 mm 3 mps 747 mmHg 74%
08:00 +24°C° 0 mm 3 mps 747 mmHg 67%
09:00 +25°C° 0 mm 3 mps 747 mmHg 60%
10:00 +27°C° 0 mm 2 mps 747 mmHg 54%
11:00 +29°C° 0 mm 2 mps 747 mmHg 47%
12:00 +30°C° 0 mm 2 mps 747 mmHg 44%
13:00 +31°C° 0 mm 2 mps 747 mmHg 41%
14:00 +32°C° 0 mm 2 mps 747 mmHg 39%
15:00 +32°C° 0 mm 2 mps 747 mmHg 39%
16:00 +31°C° 0 mm 3 mps 746 mmHg 39%
17:00 +31°C° 0 mm 3 mps 746 mmHg 40%
18:00 +29°C° 0 mm 3 mps 746 mmHg 47%
19:00 +27°C° 0 mm 3 mps 747 mmHg 53%
20:00 +25°C° 0 mm 3 mps 747 mmHg 60%
21:00 +24°C° 0 mm 2 mps 747 mmHg 62%
22:00 +23°C° 0 mm 2 mps 747 mmHg 64%
23:00 +23°C° 0 mm 2 mps 747 mmHg 65%

20 July, Monday

Time Temperature Precipitation Wind Pressure Humidity
00:00 +22°C° 0 mm 1 mps 747 mmHg 66%
01:00 +22°C° 0 mm 1 mps 747 mmHg 67%
02:00 +21°C° 0 mm 1 mps 747 mmHg 69%
03:00 +21°C° 0 mm 1 mps 747 mmHg 68%
04:00 +21°C° 0 mm 1 mps 747 mmHg 68%
05:00 +18°C° 0 mm 0 mps 747 mmHg 67%
06:00 +23°C° 0 mm 1 mps 747 mmHg 61%
07:00 +25°C° 0 mm 1 mps 747 mmHg 55%
08:00 +27°C° 0 mm 1 mps 747 mmHg 49%
09:00 +28°C° 0 mm 1 mps 747 mmHg 46%
10:00 +29°C° 0 mm 1 mps 747 mmHg 43%
11:00 +31°C° 0 mm 1 mps 747 mmHg 39%
12:00 +31°C° 0 mm 2 mps 747 mmHg 39%
13:00 +31°C° 0 mm 2 mps 747 mmHg 39%
14:00 +32°C° 0 mm 2 mps 746 mmHg 39%
15:00 +31°C° 0 mm 3 mps 746 mmHg 40%
16:00 +31°C° 0 mm 3 mps 746 mmHg 41%
17:00 +30°C° 0 mm 3 mps 746 mmHg 42%
18:00 +29°C° 0 mm 3 mps 746 mmHg 45%
19:00 +28°C° 0 mm 2 mps 746 mmHg 48%
20:00 +27°C° 0 mm 2 mps 747 mmHg 51%
21:00 +26°C° 0 mm 2 mps 747 mmHg 53%
22:00 +25°C° 0 mm 2 mps 747 mmHg 54%
23:00 +24°C° 0 mm 2 mps 747 mmHg 56%

21 July, Tuesday

Time Temperature Precipitation Wind Pressure Humidity
00:00 +23°C° 0 mm 2 mps 747 mmHg 60%
01:00 +22°C° 0 mm 1 mps 747 mmHg 63%
02:00 +21°C° 0 mm 1 mps 747 mmHg 66%
03:00 +21°C° 0 mm 1 mps 747 mmHg 69%
04:00 +20°C° 0 mm 1 mps 747 mmHg 71%
05:00 +20°C° 0 mm 1 mps 748 mmHg 74%
06:00 +21°C° 0 mm 2 mps 748 mmHg 68%
07:00 +24°C° 0 mm 2 mps 748 mmHg 61%
08:00 +26°C° 0 mm 3 mps 748 mmHg 55%
09:00 +28°C° 0 mm 3 mps 748 mmHg 50%
10:00 +29°C° 0 mm 3 mps 748 mmHg 45%
11:00 +32°C° 0 mm 4 mps 748 mmHg 40%
12:00 +33°C° 0 mm 4 mps 748 mmHg 38%
13:00 +33°C° 0 mm 4 mps 747 mmHg 36%
14:00 +34°C° 0 mm 4 mps 747 mmHg 34%
15:00 +34°C° 0 mm 4 mps 747 mmHg 35%
16:00 +34°C° 0 mm 4 mps 747 mmHg 36%
17:00 +34°C° 0 mm 4 mps 747 mmHg 37%
18:00 +31°C° 0 mm 3 mps 747 mmHg 42%
19:00 +29°C° 0 mm 3 mps 747 mmHg 47%
20:00 +27°C° 0 mm 2 mps 747 mmHg 53%
21:00 +26°C° 0 mm 2 mps 748 mmHg 53%
22:00 +25°C° 0 mm 2 mps 748 mmHg 54%
23:00 +24°C° 0 mm 2 mps 748 mmHg 55%
Show more